Independence, IA

10:23 PM CDT on October 18, 2019 (GMT -0500)
Independence Municipal

Weather History for KIIB - September, 2019

Change the Weather History Date:

Saturday, September 21, 2019

  Actual Average Record
Temperature  
Mean Temperature 72 °F -  
Max Temperature 74 °F 72 °F 92 °F (2017)
Min Temperature 70 °F 46 °F 33 °F (1974)
Cooling Degree Days 7    
Growing Degree Days 22 (Base 50)    
Moisture  
Dew Point 69 °F    
Average Humidity 90    
Maximum Humidity 94    
Minimum Humidity 86    
Precipitation  
Precipitation 0.01 in - - ()
Sea Level Pressure  
Sea Level Pressure 29.94 in    
Wind  
Wind Speed 9 mph ()    
Max Wind Speed 15 mph    
Max Gust Speed 24 mph    
Visibility 9.4 miles    
Events Rain    
Averages and records for this station are not official NWS values.
T = Trace of Precipitation, MM = Missing Value Source: Averaged Metar Reports

Daily Weather History Graph

Daily Weather History Graph

Search for Another Location

Airport or City:

Astronomy

Sep. 21, 2019 Rise Set
Actual Time 6:53 AM CDT 7:07 PM CDT
Civil Twilight 6:25 AM CDT 7:35 PM CDT
Nautical Twilight 5:52 AM CDT 8:08 PM CDT
Astronomical Twilight 5:18 AM CDT 8:41 PM CDT
Moon 11:37 PM CDT (9/21) 2:08 PM CDT (9/21)
Length of Visible Light 13h 09m
Length of Day
12h 13m
Waning Gibbous, 54% of the Moon is Illuminated
Sep 21
Waning Gibbous
Sep 21
Last Quarter
Sep 28
New
Oct 5
First Quarter
Oct 13
Full

Hourly Weather History & Observations

Time (CDT) Temp. Dew Point Humidity Pressure Visibility Wind Dir Wind Speed Gust Speed Precip Events Conditions
12:15 AM 70.3 °F 67.3 °F 90% 29.99 in 7.0 mi SE 9.2 mph - N/A   Clear
12:35 AM 70.0 °F 67.1 °F 91% 29.99 in 7.0 mi SSE 9.2 mph - N/A   Clear
12:55 AM 70.2 °F 67.3 °F 91% 29.98 in 7.0 mi Calm Calm - N/A   Clear
1:15 AM 70.0 °F 67.3 °F 91% 29.99 in 7.0 mi Calm Calm - N/A   Clear
1:35 AM 71.1 °F 68.0 °F 90% 29.99 in 10.0 mi South 8.1 mph - N/A   Mostly Cloudy
1:55 AM 72.1 °F 68.0 °F 87% 29.99 in 10.0 mi South 8.1 mph - N/A   Mostly Cloudy
2:35 AM 72.0 °F 68.0 °F 87% 29.97 in 10.0 mi SSE 3.5 mph - N/A   Mostly Cloudy
3:15 AM 72.5 °F 68.2 °F 86% 29.96 in 10.0 mi South 8.1 mph - N/A   Overcast
3:35 AM 72.5 °F 68.0 °F 86% 29.96 in 10.0 mi South 11.5 mph 16.1 mph N/A   Overcast
3:55 AM 72.5 °F 68.0 °F 86% 29.97 in 10.0 mi South 10.4 mph - N/A   Overcast
4:15 AM 72.3 °F 68.0 °F 86% 29.97 in 10.0 mi South 9.2 mph 18.4 mph N/A   Overcast
4:35 AM 72.0 °F 68.0 °F 87% 29.97 in 10.0 mi South 10.4 mph - N/A   Overcast
4:55 AM 71.6 °F 67.8 °F 88% 29.97 in 10.0 mi South 8.1 mph - N/A   Overcast
5:15 AM 71.6 °F 67.6 °F 87% 29.96 in 10.0 mi South 8.1 mph - N/A   Overcast
5:35 AM 71.2 °F 67.8 °F 89% 29.96 in 10.0 mi South 8.1 mph - N/A   Overcast
5:55 AM 70.7 °F 68.0 °F 91% 29.96 in 10.0 mi South 9.2 mph - N/A   Overcast
6:35 AM 70.5 °F 68.0 °F 92% 29.96 in 7.0 mi South 9.2 mph 17.3 mph N/A   Overcast
6:55 AM 70.3 °F 68.2 °F 93% 29.96 in 10.0 mi SSE 8.1 mph - N/A   Overcast
7:15 AM 70.2 °F 68.2 °F 93% 29.96 in 10.0 mi SSE 9.2 mph - N/A   Overcast
7:35 AM 70.5 °F 68.0 °F 92% 29.96 in 10.0 mi South 9.2 mph - N/A   Overcast
7:55 AM 70.7 °F 68.0 °F 91% 29.96 in 10.0 mi South 6.9 mph - N/A   Overcast
8:15 AM 71.1 °F 68.0 °F 90% 29.96 in 10.0 mi South 11.5 mph 16.1 mph N/A   Overcast
8:35 AM 71.2 °F 67.8 °F 89% 29.96 in 10.0 mi South 13.8 mph 18.4 mph N/A   Overcast
8:55 AM 71.6 °F 68.0 °F 88% 29.96 in 10.0 mi South 10.4 mph 17.3 mph N/A   Overcast
9:15 AM 71.8 °F 68.0 °F 88% 29.96 in 10.0 mi South 11.5 mph 17.3 mph N/A   Overcast
9:35 AM 72.0 °F 68.4 °F 88% 29.95 in 10.0 mi South 10.4 mph 17.3 mph N/A   Overcast
9:55 AM 72.5 °F 68.4 °F 87% 29.95 in 10.0 mi South 11.5 mph 16.1 mph N/A   Overcast
10:15 AM 73.0 °F 68.5 °F 86% 29.95 in 10.0 mi South 15.0 mph 18.4 mph N/A   Overcast
10:35 AM 72.5 °F 68.5 °F 87% 29.96 in 7.0 mi South 11.5 mph 17.3 mph N/A   Overcast
10:55 AM 71.8 °F 68.9 °F 91% 29.96 in 10.0 mi South 9.2 mph - N/A   Overcast
11:15 AM 72.7 °F 68.9 °F 88% 29.96 in 10.0 mi SSW 13.8 mph 18.4 mph N/A   Overcast
11:35 AM 71.8 °F 69.8 °F 93% 29.95 in 7.0 mi South 12.7 mph 17.3 mph N/A   Overcast
11:55 AM 71.8 °F 69.8 °F 93% 29.94 in 5.0 mi SSW 10.4 mph 17.3 mph 0.01 in Rain Light Rain
12:15 PM 72.0 °F 70.2 °F 94% 29.93 in 10.0 mi South 12.7 mph - N/A Rain Light Rain
12:35 PM 72.1 °F 70.0 °F 93% 29.93 in 10.0 mi South 11.5 mph - N/A Rain Light Rain
12:55 PM 72.0 °F 70.0 °F 93% 29.93 in 10.0 mi South 11.5 mph 18.4 mph N/A   Overcast
1:15 PM 72.1 °F 70.0 °F 93% 29.93 in 10.0 mi South 9.2 mph 16.1 mph N/A   Overcast
1:35 PM 72.0 °F 69.8 °F 93% 29.94 in 10.0 mi South 12.7 mph 19.6 mph N/A Rain Rain
1:55 PM 72.5 °F 69.8 °F 91% 29.93 in 10.0 mi South 12.7 mph 18.4 mph N/A   Overcast
2:15 PM 73.0 °F 69.8 °F 90% 29.93 in 10.0 mi South 15.0 mph 20.7 mph N/A   Overcast
2:35 PM 72.5 °F 70.0 °F 92% 29.92 in 7.0 mi South 11.5 mph - N/A Rain Light Rain
2:55 PM 72.7 °F 70.7 °F 93% 29.92 in 7.0 mi South 13.8 mph 18.4 mph N/A Rain Light Rain
3:15 PM 72.9 °F 70.3 °F 92% 29.91 in 10.0 mi South 11.5 mph 20.7 mph N/A   Overcast
3:35 PM 73.9 °F 70.5 °F 89% 29.91 in 10.0 mi South 11.5 mph - N/A   Overcast
3:55 PM 73.4 °F 70.2 °F 90% 29.91 in 10.0 mi SSW 13.8 mph 20.7 mph N/A   Overcast
4:15 PM 73.0 °F 70.0 °F 90% 29.91 in 10.0 mi South 13.8 mph 18.4 mph N/A   Overcast
4:35 PM 73.4 °F 70.0 °F 89% 29.91 in 10.0 mi SSW 12.7 mph 17.3 mph N/A   Overcast
4:55 PM 73.4 °F 70.2 °F 90% 29.90 in 10.0 mi South 12.7 mph - N/A   Overcast
5:15 PM 73.8 °F 70.3 °F 89% 29.91 in 10.0 mi South 10.4 mph - N/A   Overcast
5:35 PM 74.3 °F 70.3 °F 87% 29.90 in 10.0 mi South 9.2 mph 17.3 mph N/A   Overcast
5:55 PM 74.3 °F 70.3 °F 87% 29.90 in 10.0 mi South 10.4 mph - N/A   Overcast
6:15 PM 73.9 °F 70.0 °F 87% 29.90 in 10.0 mi South 12.7 mph 19.6 mph N/A   Overcast
6:35 PM 73.8 °F 69.8 °F 87% 29.90 in 10.0 mi South 11.5 mph 19.6 mph N/A   Overcast
6:55 PM 73.6 °F 69.8 °F 88% 29.90 in 10.0 mi South 12.7 mph 18.4 mph N/A   Overcast
7:15 PM 73.4 °F 69.8 °F 88% 29.89 in 10.0 mi South 11.5 mph - N/A   Overcast
7:35 PM 73.2 °F 70.0 °F 90% 29.89 in 10.0 mi South 10.4 mph 16.1 mph N/A   Overcast
7:55 PM 73.9 °F 69.8 °F 87% 29.90 in 10.0 mi SSW 13.8 mph 24.2 mph N/A   Overcast
8:15 PM 73.4 °F 70.2 °F 90% 29.91 in 10.0 mi South 11.5 mph 18.4 mph N/A   Overcast
8:35 PM 73.4 °F 70.0 °F 89% 29.90 in 10.0 mi South 11.5 mph 19.6 mph N/A   Overcast
8:55 PM 73.0 °F 69.8 °F 90% 29.91 in 10.0 mi South 12.7 mph 18.4 mph N/A   Overcast
9:15 PM 72.7 °F 69.8 °F 91% 29.91 in 10.0 mi South 13.8 mph 19.6 mph N/A   Overcast
9:35 PM 72.7 °F 69.8 °F 91% 29.91 in 10.0 mi South 15.0 mph 19.6 mph N/A   Overcast
9:55 PM 72.3 °F 69.8 °F 92% 29.91 in 7.0 mi South 13.8 mph 20.7 mph N/A   Overcast
10:15 PM 72.5 °F 69.8 °F 91% 29.92 in 7.0 mi South 11.5 mph 17.3 mph N/A   Overcast
10:35 PM 72.3 °F 69.4 °F 91% 29.92 in 10.0 mi South 11.5 mph 17.3 mph N/A   Overcast
10:55 PM 72.5 °F 69.1 °F 89% 29.91 in 10.0 mi South 11.5 mph 18.4 mph N/A   Overcast
11:15 PM 72.5 °F 69.1 °F 89% 29.92 in 7.0 mi South 10.4 mph 17.3 mph N/A   Overcast
11:35 PM 72.1 °F 69.3 °F 91% 29.92 in 10.0 mi South 11.5 mph - N/A   Overcast
11:55 PM 72.1 °F 69.1 °F 90% 29.92 in 10.0 mi SSW 10.4 mph - N/A   Overcast